SCP
0 0 0 0 0 0 0 0 0 0 0 0 0 0 0 1 1 1 1 1 2 2 2 2 2 2 1 1 1 1 1 1 0 0 0 0 0 0 0 0 0 0 0 0
0 0 0 0 0 0 0 0 0 0 0 0 0 0 0 0 1 1 1 1 2 2 2 2 2 2 1 1 1 1 1 1 0 0 0 0 0 0 0 0 0 0 0 0
0 0 0 0 0 0 0 0 0 0 0 0 0 0 0 0 0 1 1 1 2 2 2 2 2 2 2 1 1 1 1 1 0 0 0 0 0 0 0 0 0 0 0 0
0 0 0 0 0 0 0 0 0 0 0 0 0 0 0 0 0 1 1 1 2 2 2 2 2 2 2 1 1 1 1 1 0 0 0 0 0 0 0 0 0 0 0 0
0 0 0 0 0 0 0 0 0 0 0 0 0 0 0 0 0 1 1 1 2 2 2 2 2 1 1 1 1 1 1 1 1 0 0 0 0 0 0 0 0 0 0 0
0 0 0 0 0 0 0 0 0 0 0 0 0 0 0 0 0 1 1 1 2 2 2 1 1 1 1 1 1 1 1 1 1 0 0 0 0 0 0 0 0 0 0 0
0 0 0 0 0 0 0 0 0 0 0 0 0 0 0 0 0 1 1 1 1 1 2 1 1 1 1 1 1 1 1 1 1 0 0 0 0 0 0 0 0 0 0 0
0 0 0 0 0 0 0 0 0 0 0 0 0 0 0 0 0 1 1 1 1 1 1 1 1 1 1 1 1 1 1 1 1 0 0 0 0 0 0 0 0 0 0 0
0 0 0 0 0 0 0 0 0 0 0 0 0 0 0 0 1 1 1 1 1 1 1 1 1 1 1 1 1 1 1 1 1 1 0 0 0 0 0 0 0 0 0 0
0 0 0 0 -0 -0 0 0 0 0 0 0 0 0 0 0 1 1 1 1 1 1 1 1 1 1 1 1 1 1 1 1 1 1 0 0 0 0 0 0 0 0 0 0
0 0 0 0 -0 0 0 0 0 0 0 0 0 0 0 0 0 1 1 1 1 1 1 1 1 1 1 1 1 1 1 1 1 1 0 0 0 0 0 0 0 0 0 0
0 0 0 0 0 0 0 0 0 0 0 0 0 0 0 0 0 1 1 1 1 1 1 1 1 1 1 1 1 1 1 1 1 0 0 0 0 0 0 0 0 0 0 0
0 0 0 0 0 0 0 0 0 0 0 0 0 0 0 0 0 1 1 1 1 1 1 1 1 1 1 1 1 1 1 1 1 0 0 0 0 0 0 0 0 0 0 0
0 0 0 0 0 0 0 0 0 0 0 0 0 0 0 0 0 1 1 1 1 1 1 1 1 1 1 1 1 1 1 1 1 0 0 0 0 0 0 0 0 0 0 0
0 0 0 0 0 0 0 0 0 0 0 0 0 0 0 0 0 1 1 1 1 1 1 1 1 1 1 1 1 1 1 1 1 0 0 0 0 0 0 0 0 0 0 0
0 0 0 0 0 0 0 0 0 0 0 0 0 0 0 0 1 1 1 1 2 2 2 2 2 2 2 1 1 1 1 1 1 0 0 0 0 0 0 0 0 0 0 0
0 0 0 0 0 0 0 0 0 0 0 0 0 0 1 1 1 1 1 2 2 2 2 2 2 2 2 2 2 1 1 1 1 0 0 0 0 0 0 0 0 0 0 0
0 0 0 0 0 0 0 0 0 0 0 0 1 1 1 1 1 1 2 2 2 2 2 2 2 2 2 2 2 1 1 1 1 0 0 0 0 0 0 0 0 0 0 0
0 0 0 0 0 0 0 0 0 0 1 1 1 1 1 1 2 2 2 2 2 2 2 3 3 3 3 2 2 1 1 1 1 0 0 0 0 0 0 0 0 0 0 0
0 0 0 0 0 0 0 0 0 1 1 1 1 1 2 2 2 2 2 2 2 2 3 3 3 3 3 2 2 1 1 1 0 0 0 0 0 0 0 0 0 0 0 0
0 0 0 0 0 0 0 1 1 1 1 1 2 2 2 2 2 2 2 2 3 3 3 3 3 3 3 2 2 1 1 1 0 0 0 0 0 0 0 0 0 0 0 0
0 0 0 0 0 0 0 1 1 1 1 1 2 2 2 2 2 2 3 3 3 4 4 3 3 3 3 2 2 1 1 1 0 0 0 0 0 0 0 0 0 0 0 0
0 0 0 0 0 0 1 1 1 1 1 1 2 2 2 2 3 3 3 3 4 4 4 3 3 3 2 2 2 1 1 1 1 0 0 0 0 0 0 0 0 0 0 0
0 0 0 0 0 1 1 1 1 1 1 2 2 2 2 2 3 3 3 3 3 3 3 3 3 2 2 2 1 1 1 1 1 0 0 0 0 0 0 0 0 0 0 0
0 0 0 0 0 1 1 1 1 1 1 2 2 2 2 2 2 2 2 2 2 2 2 2 2 2 2 1 1 1 1 1 1 0 0 0 0 0 0 0 0 0 0 0
0 0 0 0 0 0 0 1 1 1 1 2 2 2 2 2 2 2 2 2 2 2 2 1 1 1 1 1 1 1 1 1 1 0 0 0 0 0 0 0 0 0 0 0
Wind_Speed
2 2 4 8 7 8 5 3 4 4 2 4 5 5 7 8 9 10 9 9 8 7 6 8 9 11 10 9 9 9 9 8 6 3 3 3 2 2 2 2 4 5 5 5
4 5 11 9 7 4 3 2 3 4 1 3 3 1 3 6 10 12 14 12 12 9 7 8 9 9 10 10 9 9 9 8 7 5 4 3 3 2 2 2 3 4 5 5
6 9 6 5 6 4 4 2 3 3 3 5 5 4 2 2 3 6 9 10 12 14 12 11 11 10 10 10 10 9 9 8 7 6 4 2 1 1 1 2 2 3 4 5
7 9 7 6 5 2 4 5 2 1 4 2 2 1 5 3 2 5 7 8 10 11 10 10 10 9 10 9 9 8 8 8 7 7 5 6 4 3 3 3 3 3 4 4
6 4 4 6 7 3 5 3 1 2 4 3 3 3 6 0 2 5 8 10 9 10 10 10 10 10 9 9 8 7 7 7 7 6 7 6 4 3 2 2 3 3 3 4
8 6 4 6 5 3 1 5 8 7 6 2 3 2 5 4 7 7 7 8 9 10 9 7 6 6 6 7 7 7 7 7 7 7 6 6 6 4 3 3 3 3 2 2
7 8 6 3 3 4 5 7 5 6 6 4 3 1 7 7 6 9 10 10 10 9 9 9 9 9 8 9 8 8 8 7 7 7 6 6 6 5 5 5 4 3 2 2
3 8 6 4 6 5 3 10 8 4 4 4 3 2 7 5 3 5 8 11 11 9 9 10 11 10 9 10 9 9 8 7 7 7 6 5 5 4 3 4 4 4 3 3
6 8 7 6 5 8 4 4 9 8 2 0 3 3 6 2 5 6 7 10 10 10 11 10 10 9 9 9 9 9 9 7 7 7 6 5 5 4 4 4 3 3 2 2
8 5 8 6 1 3 8 7 7 6 4 2 3 3 5 4 6 7 9 10 9 9 9 9 9 9 8 8 7 8 8 8 7 6 6 5 4 4 4 3 3 3 3 2
9 6 7 5 1 5 3 4 6 5 6 6 3 7 8 10 9 10 10 10 11 11 11 10 9 8 8 7 7 7 7 6 6 6 5 4 4 4 4 3 3 3 2 2
8 7 5 8 7 5 7 7 9 6 4 5 4 9 7 8 8 10 10 9 9 10 10 10 10 9 8 8 7 7 7 7 6 6 5 5 4 4 4 3 3 3 2 2
8 7 2 8 8 4 1 3 6 6 6 5 5 7 4 3 5 7 10 10 8 9 8 8 8 9 9 8 8 7 7 7 6 6 6 5 4 4 4 3 3 3 3 2
8 6 8 10 8 3 2 2 2 7 5 5 7 7 4 4 6 7 8 10 10 9 9 9 9 9 9 8 8 8 7 7 7 6 6 5 4 4 4 3 4 3 3 3
7 5 4 5 4 2 1 3 2 3 7 8 9 10 11 11 11 10 9 10 11 11 10 10 10 8 9 8 8 8 7 7 7 7 6 5 4 4 4 4 4 4 3 3
4 4 2 1 1 2 2 4 4 3 3 5 4 7 8 6 6 8 11 13 13 12 11 10 10 10 10 10 9 8 7 7 7 7 6 5 5 4 4 4 4 4 4 4
3 4 4 0 2 4 3 4 2 3 3 3 6 8 4 4 8 11 12 13 14 14 13 13 12 11 11 10 10 9 8 8 8 7 6 6 5 5 4 4 4 4 4 4
4 4 4 2 3 3 9 4 1 0 3 3 1 3 7 8 8 7 9 12 12 12 12 12 11 10 9 8 8 8 8 8 7 7 6 6 5 5 4 5 5 4 3 4
5 6 4 4 2 5 7 4 1 1 3 5 2 1 1 2 4 2 2 8 11 12 11 9 10 10 10 10 10 10 8 7 7 7 6 6 6 6 5 5 5 4 4 3
4 6 5 4 3 5 6 6 3 4 2 5 3 3 3 5 4 3 2 4 5 7 8 9 9 9 10 9 10 10 9 8 7 7 6 6 6 6 6 5 4 3 4 3
3 3 4 4 3 6 6 6 4 3 5 4 2 2 3 3 4 3 2 3 5 6 8 10 11 10 9 9 10 9 8 7 6 6 6 6 6 6 6 5 4 4 4 4
3 3 4 4 3 7 6 4 2 4 3 1 2 3 4 3 4 4 4 5 6 7 7 9 9 8 7 8 10 9 7 6 6 7 6 6 6 6 5 5 4 4 5 5
1 5 5 6 6 4 2 2 1 1 2 2 2 3 5 5 5 5 5 5 6 8 7 7 9 8 6 6 8 8 6 7 7 7 7 6 6 5 5 5 5 4 4 4
5 2 3 3 2 3 4 6 6 5 3 3 3 4 5 5 5 5 5 5 6 6 6 6 8 8 6 5 6 6 6 7 8 8 7 6 6 5 4 3 3 4 3 3
4 3 3 2 2 5 8 7 6 6 6 6 6 5 4 6 6 5 5 5 5 5 5 6 8 8 7 6 6 6 6 7 7 7 6 6 5 6 5 4 2 2 2 2
2 1 2 2 2 1 2 4 5 6 6 5 6 7 5 5 5 5 4 4 4 4 5 6 6 6 6 6 6 4 5 7 8 6 6 5 5 5 5 5 4 6 3 3
Wind_Direction
310 73 245 242 222 214 236 267 288 280 224 107 142 169 176 165 163 162 160 167 177 187 178 160 158 157 156 159 160 162 162 168 156 148 145 141 168 178 177 182 184 175 172 174
5 266 242 242 255 250 257 293 304 308 346 110 138 129 176 169 181 176 170 171 171 169 168 165 160 162 164 166 167 163 167 170 169 168 160 161 168 179 181 178 187 187 178 182
222 247 262 258 267 289 291 241 255 271 10 41 81 3 316 244 195 175 171 172 171 172 177 172 168 169 166 170 173 172 170 170 173 167 147 139 110 95 136 181 198 206 195 193
247 253 264 268 266 234 275 261 249 49 65 338 90 219 287 233 212 184 174 174 176 175 173 172 172 171 173 177 172 166 166 168 171 166 162 169 175 185 194 186 194 210 207 199
264 276 273 256 248 216 230 254 31 74 101 35 11 108 288 15 186 210 188 179 181 176 174 177 178 175 173 172 168 168 162 167 170 171 171 176 183 184 174 168 188 208 217 206
261 276 248 237 254 227 214 40 28 42 65 31 282 132 275 234 202 198 190 178 178 176 172 170 169 157 162 164 164 165 165 170 172 172 173 179 181 179 174 183 193 205 212 212
306 301 283 260 285 337 73 76 29 1 11 262 275 152 253 250 205 182 175 170 172 167 161 162 165 166 173 169 168 169 170 172 173 173 179 182 182 181 189 191 193 192 198 210
235 283 270 229 189 192 157 133 152 189 221 277 329 232 263 257 182 151 159 164 166 166 167 171 174 173 176 174 171 169 173 175 174 176 181 180 181 184 193 195 191 191 198 208
198 254 280 259 208 160 158 170 167 139 163 335 294 287 314 51 114 137 155 162 169 173 172 173 173 171 173 173 173 171 172 173 175 177 177 182 182 185 191 192 188 186 191 196
180 251 285 292 276 197 164 154 96 109 147 240 288 250 224 205 176 173 171 173 175 173 167 165 168 172 172 170 169 166 170 173 175 179 183 183 183 181 176 167 173 179 189 190
175 202 287 343 215 206 168 135 119 126 150 152 220 263 227 198 189 180 181 179 175 173 169 166 169 171 165 159 159 162 166 167 170 174 171 167 168 167 162 168 177 178 177 171
179 159 243 260 258 215 179 178 147 152 206 160 166 262 263 198 190 174 174 174 174 171 169 168 165 159 159 160 160 162 164 164 166 162 155 159 158 154 158 166 169 163 158 158
157 137 192 323 332 344 187 177 157 142 132 151 163 260 292 159 175 175 169 169 165 163 163 161 159 160 163 162 159 160 160 158 153 148 147 148 152 153 160 164 154 148 142 134
129 125 165 198 216 234 301 291 153 126 151 199 207 223 254 196 184 182 176 167 161 164 164 164 165 165 161 158 159 158 157 153 149 146 146 152 161 161 159 154 146 144 137 131
107 136 169 193 202 169 261 297 286 187 186 188 220 203 215 204 193 183 173 168 161 165 168 169 170 166 160 157 158 157 153 151 148 146 150 158 153 143 143 141 136 125 117 117
69 121 110 36 23 41 333 305 304 278 221 207 210 230 232 208 176 167 168 170 169 170 174 174 168 165 163 163 161 156 154 154 149 150 154 148 137 133 133 132 126 117 110 102
45 98 99 288 358 43 301 263 278 293 293 192 209 233 218 172 180 181 176 173 174 173 174 174 173 170 168 165 159 155 154 149 146 147 146 143 138 136 140 136 121 119 118 111
110 87 111 111 71 222 244 260 243 46 350 337 240 205 184 186 193 184 173 169 172 174 173 172 169 163 158 151 145 143 141 142 143 143 144 142 138 137 132 127 126 121 116 115
131 124 105 110 151 273 295 315 350 101 352 351 43 88 146 140 86 22 202 172 175 176 171 164 160 153 148 148 146 138 138 141 143 149 152 150 145 142 138 137 138 132 121 113
80 100 112 123 153 221 253 293 308 90 354 328 31 75 90 96 113 245 244 170 161 154 148 145 140 135 142 146 141 137 143 147 154 158 154 150 148 146 147 145 139 133 126 126
33 60 128 157 199 252 269 311 27 95 239 301 21 72 103 131 183 209 132 122 131 129 134 138 138 140 147 144 138 139 145 155 154 144 140 141 143 142 142 138 135 136 133 126
182 170 186 156 186 254 303 25 99 213 241 324 45 67 78 84 85 83 92 103 109 113 117 126 129 130 133 138 138 140 148 147 139 137 135 136 139 142 142 139 139 137 137 133
157 189 188 180 202 243 335 109 203 160 86 28 52 85 102 91 80 86 85 91 99 108 113 116 122 121 121 132 138 141 145 139 136 134 135 135 132 128 138 144 145 139 138 141
317 356 79 60 17 2 23 34 19 15 36 52 81 94 99 99 96 95 94 91 94 100 111 118 122 124 126 126 126 134 140 140 136 137 139 139 133 128 121 123 135 143 153 158
295 6 45 56 341 11 12 15 7 8 24 41 49 55 85 107 105 103 100 102 101 101 108 122 127 131 132 128 125 128 134 136 136 140 141 139 133 132 119 103 88 127 141 178
289 159 131 206 235 164 285 330 7 22 29 36 58 49 53 89 104 102 101 102 106 112 114 115 115 120 123 121 118 126 140 141 141 143 145 146 141 137 135 130 98 54 68 77